This demonstration page uses our WeatherBlox Daily Observations layout. Learn more.

Left ArrowRight Arrow

Hourly Observations for May 13, 2019

Temp ( °F °C ) Dew Point ( °F °C ) Humidity (%) Winds ( mph kmh ) Pressure ( in mb ) Visibility ( mi km ) Precip ( " mm )
12:15 am 00:15 Cloudy 45 7 45 7 100 100 ENE 9 15 29.85 1011 7 11.26538 0 0
12:35 am 00:35 Cloudy 45 7 45 7 100 100 ENE 5 7 29.86 1011 7 11.26538 0 0
12:55 am 00:55 Cloudy 45 7 45 7 100 100 ENE 9 15 29.84 1011 10 16.0934 0 0
1:15 am 01:15 Cloudy 45 7 45 7 100 100 NE 8 13 29.86 1011 7 11.26538 0 0
1:35 am 01:35 Cloudy 45 7 45 7 100 100 NE 7 11 29.86 1011 7 11.26538 0 0
1:55 am 01:55 Cloudy 45 7 45 7 100 100 ENE 7 11 29.85 1011 4 6.43736 0 0
2:15 am 02:15 Cloudy 45 7 45 7 100 100 NE 6 9 29.85 1011 4 6.43736 0 0
2:35 am 02:35 Cloudy 45 7 45 7 100 100 ENE 3 6 29.84 1011 5 8.0467 0 0
2:55 am 02:55 Cloudy 45 7 45 7 100 100 ENE 5 7 29.84 1011 10 16.0934 0 0
3:15 am 03:15 Cloudy 45 7 45 7 100 100 ENE 6 9 29.83 1010 7 11.26538 0 0
3:35 am 03:35 Cloudy 45 7 45 7 100 100 ENE 3 6 29.83 1010 10 16.0934 0 0
4:15 am 04:15 Cloudy 45 7 45 7 100 100 NE 6 9 29.84 1011 10 16.0934 0 0
4:35 am 04:35 Cloudy 45 7 45 7 100 100 ENE 6 9 29.83 1010 10 16.0934 0 0
4:55 am 04:55 Cloudy 45 7 45 7 100 100 ENE 6 9 29.81 1010 10 16.0934 0 0
5:15 am 05:15 Cloudy 45 7 45 7 100 100 Calm 29.83 1010 10 16.0934 0 0
5:35 am 05:35 Cloudy 45 7 45 7 100 100 ENE 3 6 29.83 1010 10 16.0934 0 0
5:55 am 05:55 Cloudy 45 7 45 7 100 100 Calm 29.82 1010 10 16.0934 0 0
6:15 am 06:15 Cloudy 45 7 45 7 100 100 ENE 3 6 29.83 1010 10 16.0934 0 0
6:35 am 06:35 Cloudy 45 7 45 7 100 100 ENE 5 7 29.84 1011 10 16.0934 0 0
6:55 am 06:55 Cloudy 45 7 45 7 100 100 NE 3 6 29.84 1011 10 16.0934 0 0
7:15 am 07:15 Cloudy 45 7 45 7 100 100 ENE 7 11 29.84 1011 5 8.0467 0 0
7:35 am 07:35 Cloudy 45 7 45 7 100 100 ENE 5 7 29.84 1011 4 6.43736 0 0
7:55 am 07:55 Cloudy 45 7 45 7 100 100 ENE 6 9 29.83 1010 4 6.43736 0 0
8:15 am 08:15 Cloudy 45 7 45 7 100 100 Calm 29.83 1010 3 4.82802 0 0
8:35 am 08:35 Cloudy 45 7 45 7 100 100 NE 5 7 29.83 1010 7 11.26538 0 0
8:55 am 08:55 Cloudy 45 7 45 7 100 100 Calm 29.84 1011 4 6.43736 0 0
9:15 am 09:15 Cloudy 45 7 45 7 100 100 NE 3 6 29.84 1011 2 3.21868 0 0
9:35 am 09:35 Cloudy 45 7 45 7 100 100 Calm 29.83 1010 2.5 4.02335 0 0
9:55 am 09:55 Cloudy 45 7 45 7 100 100 E 7 11 29.81 1010 0.5 0.80467 0 0
10:15 am 10:15 Cloudy 45 7 45 7 100 100 NE 7 11 29.81 1010 4 6.43736 0 0
10:35 am 10:35 Cloudy 46 8 46 8 100 100 NNE 6 9 29.82 1010 10 16.0934 0 0
11:15 am 11:15 Cloudy 46 8 46 8 100 100 N 6 9 29.84 1010 10 16.0934 0 0
11:35 am 11:35 Cloudy 46 8 46 8 100 100 NW 7 11 29.86 1011 2 3.21868 0 0
11:55 am 11:55 Cloudy 46 8 46 8 100 100 ESE 5 7 29.82 1010 5 8.0467 0 0
12:15 pm 12:15 Cloudy 46 8 46 8 100 100 ENE 6 9 29.81 1009 5 8.0467 0 0
12:35 pm 12:35 Cloudy 46 8 46 8 100 100 NE 6 9 29.81 1009 7 11.26538 0 0
12:55 pm 12:55 Cloudy 46 8 46 8 100 100 Calm 29.82 1010 10 16.0934 0 0
1:15 pm 13:15 Cloudy 46 8 46 8 100 100 Calm 29.82 1010 10 16.0934 0 0
1:35 pm 13:35 Cloudy 48 9 48 9 100 100 Calm 29.81 1009 10 16.0934 0 0
1:55 pm 13:55 Cloudy 48 9 48 9 100 100 N 7 11 29.81 1009 10 16.0934 0 0
2:15 pm 14:15 Cloudy 50 10 48 9 94 94 N 5 7 29.81 1009 10 16.0934 0 0
2:30 pm 14:30 Cloudy 50 10 48 9 94 94 NE 3 6 29.81 1009 10 16.0934 0 0
2:50 pm 14:50 Cloudy 50 10 48 9 94 94 Calm 29.81 1009 10 16.0934 0 0
3:15 pm 15:15 Cloudy 50 10 50 10 100 100 NE 3 6 29.81 1009 5 8.0467 0 0
3:35 pm 15:35 Cloudy 50 10 50 10 100 100 Calm 29.8 1009 7 11.26538 0 0
3:55 pm 15:55 Cloudy 50 10 50 10 100 100 Calm 29.8 1009 10 16.0934 0 0
4:15 pm 16:15 Cloudy 52 11 50 10 94 94 Calm 29.79 1009 10 16.0934 0 0
4:35 pm 16:35 Cloudy 52 11 50 10 94 94 NE 6 9 29.78 1009 10 16.0934 0 0
4:55 pm 16:55 Cloudy 52 11 50 10 94 94 ENE 5 7 29.79 1009 10 16.0934 0 0
5:15 pm 17:15 Cloudy 52 11 50 10 94 94 ENE 3 6 29.79 1009 10 16.0934 0 0
5:35 pm 17:35 Cloudy 52 11 50 10 94 94 E 3 6 29.79 1009 10 16.0934 0 0
5:55 pm 17:55 Cloudy 52 11 50 10 94 94 NE 5 7 29.79 1009 10 16.0934 0 0
6:15 pm 18:15 Partly Cloudy 54 12 50 10 88 88 NE 5 7 29.79 1009 10 16.0934 0 0
6:35 pm 18:35 Mostly Cloudy 54 12 52 11 94 94 NE 5 7 29.8 1009 10 16.0934 0 0
6:55 pm 18:55 Cloudy 54 12 50 10 88 88 Calm 29.8 1009 10 16.0934 0 0
7:15 pm 19:15 Cloudy 52 11 50 10 94 94 ENE 5 7 29.8 1009 10 16.0934 0 0
7:35 pm 19:35 Partly Cloudy 52 11 50 10 94 94 Calm 29.81 1010 10 16.0934 0 0
7:55 pm 19:55 Mostly Cloudy 52 11 52 11 100 100 Calm 29.83 1010 10 16.0934 0 0
8:15 pm 20:15 Cloudy 52 11 50 10 94 94 NE 5 7 29.83 1010 10 16.0934 0 0
8:35 pm 20:35 Cloudy 52 11 50 10 94 94 Calm 29.83 1010 10 16.0934 0 0
8:55 pm 20:55 Cloudy 50 10 50 10 100 100 Calm 29.84 1010 10 16.0934 0 0
9:15 pm 21:15 Mostly Cloudy 50 10 50 10 100 100 Calm 29.85 1011 10 16.0934 0 0
9:35 pm 21:35 Partly Cloudy 48 9 48 9 100 100 WSW 5 7 29.85 1011 10 16.0934 0 0
9:55 pm 21:55 Mostly Cloudy 48 9 48 9 100 100 Calm 29.86 1011 7 11.26538 0 0
10:10 pm 22:10 Cloudy 48 9 48 9 100 100 Calm 29.86 1011 10 16.0934 0 0
10:35 pm 22:35 Cloudy 48 9 48 9 100 100 Calm 29.87 1011 10 16.0934 0 0
10:55 pm 22:55 Mostly Cloudy 46 8 46 8 100 100 Calm 29.87 1011 10 16.0934 0 0
11:15 pm 23:15 Mostly Cloudy 46 8 46 8 100 100 Calm 29.87 1011 10 16.0934 0 0
11:35 pm 23:35 Cloudy 48 9 48 9 100 100 S 3 6 29.87 1011 10 16.0934 0 0
11:55 pm 23:55 Cloudy 48 9 48 9 100 100 Calm 29.86 1011 10 16.0934 0 0

Powered by AerisWeather